EST,Max TemperatureF,Mean TemperatureF,Min TemperatureF,Max Dew PointF,MeanDew PointF,Min DewpointF,Max Humidity, Mean Humidity, Min Humidity, Max Sea Level PressureIn, Mean Sea Level PressureIn, Min Sea Level PressureIn, Max VisibilityMiles, Mean VisibilityMiles, Min VisibilityMiles, Max Wind SpeedMPH, Mean Wind SpeedMPH, Max Gust SpeedMPH,PrecipitationIn, CloudCover, Events, WindDirDegrees
2013-12-1,49,43,37,36,32,30,76,66,56,30.36,30.17,30.03,10,10,7,10,7,13,T,7,,285
2013-12-2,51,45,38,39,35,30,86,69,52,30.02,29.96,29.90,10,10,8,9,4,12,0.00,6,,37
2013-12-3,54,46,38,37,35,33,92,71,50,30.02,29.94,29.89,10,8,7,12,6,15,0.00,4,,310
2013-12-4,51,43,35,45,37,32,89,73,56,30.15,30.11,30.03,10,8,5,9,4,12,0.00,6,,57
2013-12-5,56,52,47,54,51,45,100,93,86,30.14,30.06,29.97,10,3,0,16,7,21,0.01,8,Fog-Rain,167
2013-12-6,56,47,37,54,44,34,100,92,83,30.14,30.02,29.90,10,6,0,21,11,31,0.57,8,Fog-Rain,352
2013-12-7,43,38,32,33,25,15,85,64,43,30.52,30.32,30.12,10,9,4,20,13,25,0.17,6,Rain,336
2013-12-8,34,31,28,29,20,13,85,64,43,30.61,30.53,30.39,10,8,2,16,9,21,0.03,7,Rain-Snow,29
2013-12-9,42,37,32,39,35,30,96,88,79,30.37,30.10,29.97,10,4,1,20,12,26,0.25,8,Rain,338
2013-12-10,38,34,30,33,29,15,96,77,58,30.15,29.98,29.88,10,6,0,23,12,29,0.28,6,Fog-Rain-Snow,285
2013-12-11,32,30,27,19,16,13,59,54,49,30.35,30.27,30.17,10,10,10,24,18,30,0.00,2,,259
2013-12-12,30,27,23,14,8,4,57,46,35,30.37,30.28,30.19,10,10,10,26,16,32,0.00,2,,295
2013-12-13,36,30,24,20,12,5,56,47,38,30.35,30.22,30.16,10,10,10,26,15,35,0.00,5,,264
2013-12-14,43,34,25,41,22,16,92,74,56,30.51,30.30,29.79,10,4,1,24,15,35,0.57,8,Rain-Snow,50
2013-12-15,47,40,33,44,31,19,96,74,52,29.87,29.65,29.49,10,8,2,26,15,36,0.82,7,Rain,291
2013-12-16,35,30,25,21,10,4,61,47,32,30.25,30.08,29.86,10,10,10,28,14,33,0.00,3,,285
2013-12-17,34,30,25,30,22,8,88,65,42,30.24,30.06,29.94,10,7,1,21,10,25,0.13,8,Rain-Snow,27
2013-12-18,38,32,25,23,20,18,81,64,47,30.19,30.06,29.93,10,10,10,23,13,28,0.00,4,,291
2013-12-19,45,37,29,30,25,19,69,59,49,30.20,30.14,30.06,10,10,10,17,10,21,0.00,5,,239
2013-12-20,51,44,36,42,34,30,89,69,48,30.13,30.06,29.99,10,10,9,13,6,15,0.00,7,,194
2013-12-21,55,49,42,48,45,41,96,84,71,30.03,29.98,29.93,10,9,4,18,6,21,0.00,6,Fog,182
2013-12-22,64,57,50,54,51,48,96,86,75,29.99,29.92,29.85,10,7,0,28,13,32,T,7,Fog-Rain,191
2013-12-23,57,50,43,55,49,33,100,92,83,30.16,30.00,29.91,10,6,0,23,9,30,0.49,8,Fog-Rain,227
2013-12-24,43,35,27,31,21,4,70,55,40,30.35,30.18,30.09,10,10,10,29,16,36,T,6,,331
2013-12-25,32,26,20,21,7,3,58,46,34,30.54,30.49,30.37,10,10,10,29,10,36,0.00,4,,354
2013-12-26,38,33,28,25,22,19,69,61,52,30.43,30.29,30.18,10,10,10,21,9,24,T,4,,278
2013-12-27,42,37,31,24,20,16,64,51,38,30.38,30.33,30.29,10,10,10,21,11,23,0.00,2,,263
2013-12-28,53,42,31,32,28,23,75,57,38,30.30,30.19,30.09,10,10,10,23,12,25,0.00,3,,234
2013-12-29,49,44,38,48,38,30,93,75,57,30.09,29.76,29.40,10,7,1,25,10,33,1.18,7,Rain,270
2013-12-30,47,36,24,37,25,7,86,65,43,30.20,29.99,29.73,10,10,10,24,14,30,0.00,4,,301
2013-12-31,34,28,21,21,11,5,59,49,39,30.30,30.18,30.09,10,10,9,26,12,37,T,4,Snow,298